TimeMST,TemperatureF,Dew PointF,Humidity,Sea Level PressureIn,VisibilityMPH,Wind Direction,Wind SpeedMPH,Gust SpeedMPH,PrecipitationIn,Events,Conditions,WindDirDegrees,DateUTC
12:53 AM,42.1,9.0,26,30.14,10.0,North,9.2,-,N/A,,Clear,360,2012-11-05 07:53:00
1:53 AM,42.1,10.0,27,30.15,10.0,North,6.9,-,N/A,,Clear,10,2012-11-05 08:53:00
2:53 AM,42.1,10.0,27,30.15,10.0,North,6.9,-,N/A,,Clear,360,2012-11-05 09:53:00
3:53 AM,35.1,9.0,34,30.18,10.0,NE,5.8,-,N/A,,Clear,40,2012-11-05 10:53:00
4:53 AM,34.0,9.0,35,30.20,10.0,NNE,9.2,-,N/A,,Clear,20,2012-11-05 11:53:00
5:53 AM,35.1,9.0,34,30.22,10.0,NNE,8.1,-,N/A,,Clear,30,2012-11-05 12:53:00
6:53 AM,34.0,10.0,37,30.29,10.0,NNE,6.9,-,N/A,,Clear,20,2012-11-05 13:53:00
7:53 AM,42.1,10.9,28,30.27,10.0,NNE,4.6,-,N/A,,Clear,20,2012-11-05 14:53:00
8:53 AM,50.0,12.0,22,30.25,10.0,North,9.2,-,N/A,,Clear,10,2012-11-05 15:53:00
9:53 AM,54.0,14.0,21,30.21,10.0,Calm,Calm,-,N/A,,Clear,0,2012-11-05 16:53:00
10:53 AM,57.0,14.0,18,30.19,10.0,NW,4.6,-,N/A,,Clear,310,2012-11-05 17:53:00
11:53 AM,61.0,12.9,15,30.16,10.0,ESE,4.6,-,N/A,,Clear,110,2012-11-05 18:53:00
12:53 PM,62.1,12.9,15,30.12,10.0,Variable,4.6,-,N/A,,Clear,0,2012-11-05 19:53:00
1:53 PM,64.0,12.9,14,30.09,10.0,West,8.1,-,N/A,,Clear,260,2012-11-05 20:53:00
2:53 PM,64.9,14.0,14,30.07,10.0,WNW,4.6,-,N/A,,Clear,290,2012-11-05 21:53:00
3:53 PM,64.0,15.1,15,30.10,10.0,SW,4.6,-,N/A,,Clear,220,2012-11-05 22:53:00
4:53 PM,60.1,15.1,17,30.12,10.0,SW,4.6,-,N/A,,Clear,230,2012-11-05 23:53:00
5:53 PM,60.1,16.0,18,30.12,10.0,Calm,Calm,-,N/A,,Clear,0,2012-11-06 00:53:00
6:53 PM,54.0,16.0,22,30.16,10.0,Calm,Calm,-,N/A,,Clear,0,2012-11-06 01:53:00
7:53 PM,50.0,15.1,25,30.14,10.0,East,3.5,-,N/A,,Clear,100,2012-11-06 02:53:00
8:53 PM,42.1,15.1,34,30.16,10.0,NNE,4.6,-,N/A,,Clear,20,2012-11-06 03:53:00
9:53 PM,39.9,16.0,38,30.15,10.0,North,6.9,-,N/A,,Clear,10,2012-11-06 04:53:00
10:53 PM,42.1,17.1,37,30.14,10.0,ENE,3.5,-,N/A,,Clear,70,2012-11-06 05:53:00
11:53 PM,42.1,17.1,37,30.12,10.0,NNE,5.8,-,N/A,,Clear,30,2012-11-06 06:53:00